When you browse on this site, cookies collect data to enhance your experience and personalize the content and advertising you see.
Visit our Privacy Policy to learn more. By continuing to use the site, you agree to this use of cookies and data.
  • Em Portugal
  • Lista de países
  • Para 7 dias
  • Temperatura da água
  • Mapa do tempo
  • Widgets de tempo
  • user-avatar
    Iniciar Sessão

    Previsão horária em São Juão

    Hoje, 26 Fevereiro, Quarta-feira

    Tempo Temperatura Precipitação Vento Pressão Humidade
    00:00 +25°C° 0 mm 3 m/s 708 mmHg 25%
    01:00 +24°C° 0 mm 3 m/s 708 mmHg 27%
    02:00 +22°C° 0 mm 3 m/s 708 mmHg 29%
    03:00 +22°C° 0 mm 3 m/s 708 mmHg 30%
    04:00 +21°C° 0 mm 3 m/s 708 mmHg 31%
    05:00 +22°C° 0 mm 3 m/s 708 mmHg 30%
    06:00 +22°C° 0 mm 3 m/s 708 mmHg 28%
    07:00 +24°C° 0 mm 3 m/s 708 mmHg 27%
    08:00 +26°C° 0 mm 3 m/s 708 mmHg 25%
    09:00 +27°C° 0 mm 3 m/s 708 mmHg 23%
    10:00 +29°C° 0 mm 2 m/s 708 mmHg 21%
    11:00 +30°C° 0 mm 2 m/s 707 mmHg 20%
    12:00 +31°C° 0 mm 2 m/s 706 mmHg 20%
    13:00 +34°C° 0 mm 2 m/s 706 mmHg 19%
    14:00 +34°C° 0 mm 2 m/s 705 mmHg 19%
    15:00 +35°C° 0 mm 2 m/s 705 mmHg 19%
    16:00 +35°C° 0 mm 3 m/s 705 mmHg 19%
    17:00 +34°C° 0 mm 2 m/s 705 mmHg 21%
    18:00 +31°C° 0 mm 2 m/s 705 mmHg 23%
    19:00 +30°C° 0 mm 2 m/s 705 mmHg 25%
    20:00 +29°C° 0 mm 2 m/s 706 mmHg 27%
    21:00 +29°C° 0 mm 2 m/s 706 mmHg 29%
    22:00 +28°C° 0 mm 2 m/s 707 mmHg 31%
    23:00 +28°C° 0 mm 2 m/s 707 mmHg 33%

    Amanhã, 27 Fevereiro, Quinta-feira

    Tempo Temperatura Precipitação Vento Pressão Humidade
    00:00 +27°C° 0 mm 2 m/s 706 mmHg 34%
    01:00 +26°C° 0 mm 2 m/s 706 mmHg 36%
    02:00 +26°C° 0 mm 2 m/s 706 mmHg 37%
    03:00 +25°C° 0 mm 2 m/s 705 mmHg 37%
    04:00 +25°C° 0 mm 2 m/s 705 mmHg 38%
    05:00 +26°C° 0 mm 2 m/s 706 mmHg 36%
    06:00 +27°C° 0 mm 2 m/s 706 mmHg 33%
    07:00 +29°C° 0 mm 2 m/s 707 mmHg 30%
    08:00 +30°C° 0 mm 2 m/s 707 mmHg 28%
    09:00 +31°C° 0 mm 2 m/s 707 mmHg 26%
    10:00 +34°C° 0 mm 2 m/s 707 mmHg 24%
    11:00 +35°C° 0 mm 2 m/s 706 mmHg 23%
    12:00 +36°C° 0 mm 2 m/s 705 mmHg 21%
    13:00 +37°C° 0 mm 3 m/s 705 mmHg 19%
    14:00 +37°C° 0 mm 3 m/s 704 mmHg 19%
    15:00 +38°C° 0 mm 3 m/s 704 mmHg 18%
    16:00 +38°C° 0 mm 4 m/s 703 mmHg 18%
    17:00 +36°C° 0 mm 4 m/s 704 mmHg 21%
    18:00 +34°C° 0 mm 4 m/s 704 mmHg 24%
    19:00 +33°C° 0 mm 4 m/s 705 mmHg 28%
    20:00 +32°C° 0 mm 4 m/s 705 mmHg 29%
    21:00 +30°C° 0 mm 4 m/s 706 mmHg 30%
    22:00 +30°C° 0 mm 4 m/s 706 mmHg 31%
    23:00 +29°C° 0.1 mm 3 m/s 706 mmHg 33%

    Depois de amanhã, 28 Fevereiro, Sexta-feira

    Tempo Temperatura Precipitação Vento Pressão Humidade
    00:00 +28°C° 0.1 mm 2 m/s 706 mmHg 35%
    01:00 +28°C° 0.1 mm 2 m/s 705 mmHg 37%
    02:00 +27°C° 0 mm 2 m/s 705 mmHg 38%
    03:00 +27°C° 0 mm 2 m/s 705 mmHg 39%
    04:00 +26°C° 0 mm 2 m/s 705 mmHg 40%
    05:00 +27°C° 0 mm 2 m/s 706 mmHg 37%
    06:00 +29°C° 0 mm 2 m/s 707 mmHg 35%
    07:00 +30°C° 0 mm 2 m/s 707 mmHg 32%
    08:00 +31°C° 0 mm 2 m/s 707 mmHg 29%
    09:00 +34°C° 0 mm 2 m/s 707 mmHg 27%
    10:00 +35°C° 0 mm 2 m/s 707 mmHg 24%
    11:00 +36°C° 0 mm 2 m/s 707 mmHg 22%
    12:00 +37°C° 0 mm 3 m/s 707 mmHg 20%
    13:00 +38°C° 0 mm 3 m/s 707 mmHg 17%
    14:00 +39°C° 0 mm 3 m/s 706 mmHg 17%
    15:00 +40°C° 0 mm 4 m/s 706 mmHg 16%
    16:00 +40°C° 0 mm 4 m/s 705 mmHg 16%
    17:00 +37°C° 0 mm 4 m/s 706 mmHg 18%
    18:00 +36°C° 0 mm 4 m/s 706 mmHg 21%
    19:00 +34°C° 0 mm 3 m/s 707 mmHg 23%
    20:00 +33°C° 0.1 mm 4 m/s 708 mmHg 25%
    21:00 +33°C° 0.1 mm 4 m/s 708 mmHg 27%
    22:00 +32°C° 0.1 mm 4 m/s 709 mmHg 28%
    23:00 +31°C° 0 mm 3 m/s 709 mmHg 28%

    29 Fevereiro, Sábado

    Tempo Temperatura Precipitação Vento Pressão Humidade
    00:00 +30°C° 0 mm 3 m/s 709 mmHg 28%
    01:00 +30°C° 0 mm 3 m/s 709 mmHg 28%
    02:00 +29°C° 0 mm 3 m/s 709 mmHg 30%
    03:00 +28°C° 0 mm 2 m/s 709 mmHg 31%
    04:00 +27°C° 0 mm 2 m/s 709 mmHg 32%
    05:00 +29°C° 0 mm 2 m/s 709 mmHg 30%
    06:00 +30°C° 0 mm 2 m/s 710 mmHg 28%
    07:00 +31°C° 0 mm 2 m/s 710 mmHg 26%
    08:00 +34°C° 0 mm 3 m/s 710 mmHg 24%
    09:00 +35°C° 0 mm 3 m/s 710 mmHg 22%
    10:00 +37°C° 0 mm 4 m/s 710 mmHg 20%
    11:00 +39°C° 0 mm 5 m/s 710 mmHg 17%
    12:00 +40°C° 0 mm 5 m/s 709 mmHg 15%
    13:00 +41°C° 0 mm 6 m/s 709 mmHg 13%
    14:00 +41°C° 0 mm 7 m/s 708 mmHg 13%
    15:00 +40°C° 0 mm 8 m/s 708 mmHg 13%
    16:00 +40°C° 0 mm 8 m/s 707 mmHg 13%
    17:00 +38°C° 0 mm 8 m/s 707 mmHg 14%
    18:00 +36°C° 0 mm 7 m/s 707 mmHg 16%
    19:00 +34°C° 0 mm 6 m/s 708 mmHg 17%
    20:00 +34°C° 0 mm 7 m/s 708 mmHg 18%
    21:00 +33°C° 0 mm 7 m/s 708 mmHg 19%
    22:00 +32°C° 0 mm 7 m/s 708 mmHg 20%
    23:00 +30°C° 0 mm 6 m/s 708 mmHg 21%

    1 Março, Domingo

    Tempo Temperatura Precipitação Vento Pressão Humidade
    00:00 +30°C° 0 mm 6 m/s 708 mmHg 22%
    01:00 +29°C° 0 mm 5 m/s 707 mmHg 24%
    02:00 +29°C° 0 mm 5 m/s 707 mmHg 24%
    03:00 +28°C° 0 mm 5 m/s 707 mmHg 25%
    04:00 +28°C° 0 mm 5 m/s 707 mmHg 26%
    05:00 +29°C° 0 mm 5 m/s 707 mmHg 25%
    06:00 +30°C° 0 mm 5 m/s 708 mmHg 24%
    07:00 +30°C° 0 mm 5 m/s 708 mmHg 24%
    08:00 +33°C° 0 mm 6 m/s 708 mmHg 22%
    09:00 +35°C° 0 mm 6 m/s 708 mmHg 20%
    10:00 +36°C° 0 mm 7 m/s 708 mmHg 19%
    11:00 +38°C° 0 mm 7 m/s 707 mmHg 18%
    12:00 +39°C° 0 mm 8 m/s 707 mmHg 17%
    13:00 +40°C° 0 mm 8 m/s 706 mmHg 16%
    14:00 +40°C° 0 mm 8 m/s 706 mmHg 17%
    15:00 +40°C° 0 mm 8 m/s 705 mmHg 17%
    16:00 +40°C° 0 mm 7 m/s 704 mmHg 17%
    17:00 +38°C° 0 mm 8 m/s 705 mmHg 20%
    18:00 +35°C° 0 mm 8 m/s 705 mmHg 22%
    19:00 +34°C° 0 mm 8 m/s 705 mmHg 24%
    20:00 +33°C° 0 mm 8 m/s 706 mmHg 25%
    21:00 +32°C° 0 mm 7 m/s 706 mmHg 26%
    22:00 +30°C° 0 mm 6 m/s 706 mmHg 27%
    23:00 +30°C° 0 mm 5 m/s 706 mmHg 28%

    2 Março, Segunda-feira

    Tempo Temperatura Precipitação Vento Pressão Humidade
    00:00 +29°C° 0 mm 5 m/s 706 mmHg 29%
    01:00 +29°C° 0 mm 4 m/s 706 mmHg 30%
    02:00 +28°C° 0 mm 4 m/s 705 mmHg 31%
    03:00 +27°C° 0 mm 4 m/s 705 mmHg 32%
    04:00 +26°C° 0 mm 4 m/s 705 mmHg 33%
    05:00 +27°C° 0 mm 3 m/s 706 mmHg 32%
    06:00 +28°C° 0 mm 3 m/s 706 mmHg 30%
    07:00 +29°C° 0 mm 3 m/s 706 mmHg 29%
    08:00 +31°C° 0 mm 3 m/s 706 mmHg 26%
    09:00 +34°C° 0 mm 4 m/s 706 mmHg 24%
    10:00 +36°C° 0 mm 4 m/s 706 mmHg 22%
    11:00 +37°C° 0 mm 4 m/s 705 mmHg 20%
    12:00 +38°C° 0 mm 4 m/s 705 mmHg 19%
    13:00 +40°C° 0 mm 4 m/s 704 mmHg 17%
    14:00 +40°C° 0 mm 4 m/s 704 mmHg 17%
    15:00 +40°C° 0 mm 4 m/s 703 mmHg 17%
    16:00 +40°C° 0 mm 4 m/s 703 mmHg 17%
    17:00 +38°C° 0 mm 4 m/s 703 mmHg 20%
    18:00 +36°C° 0 mm 4 m/s 703 mmHg 23%
    19:00 +34°C° 0 mm 5 m/s 703 mmHg 27%
    20:00 +33°C° 0.1 mm 4 m/s 704 mmHg 28%
    21:00 +33°C° 0.1 mm 4 m/s 704 mmHg 30%
    22:00 +31°C° 0.1 mm 3 m/s 704 mmHg 32%
    23:00 +30°C° 0 mm 3 m/s 704 mmHg 33%
    Mostrar mais